Hillsboro, TX

9:03 PM CST on February 26, 2017 (GMT -0600)
Hillsboro

Weather History for KINJ - October, 2013

Change the Weather History Date:

Sunday, October 6, 2013

  Actual Average (KACT) Record (KACT)
Temperature  
Mean Temperature 62 °F -  
Max Temperature 77 °F 80 °F 97 °F (1956)
Min Temperature 48 °F 59 °F 41 °F (2010)
Degree Days  
Heating Degree Days 3    
Growing Degree Days 12 (Base 50)    
Moisture  
Dew Point 40 °F    
Average Humidity 54    
Maximum Humidity 92    
Minimum Humidity 17    
Precipitation  
Precipitation 0.00 in - - ()
Sea Level Pressure  
Sea Level Pressure 30.10 in    
Wind  
Wind Speed 8 mph (NW)    
Max Wind Speed 22 mph    
Max Gust Speed 26 mph    
Visibility 10 miles    
Events Rain    
Averages and records for this station are not official NWS values.
T = Trace of Precipitation, MM = Missing Value Source: NWS Daily Summary

Daily Weather History Graph

Daily Weather History Graph

Search for Another Location

Airport or City:

Trip Planner

Search our weather history database for the weather conditions in past years. The results will help you decide how hot, cold, wet, or windy it might be!

Date:

Astronomy

Oct. 06, 2013 Rise Set
Actual Time 7:25 AM CDT 7:06 PM CDT
Civil Twilight 7:01 AM CDT 7:30 PM CDT
Nautical Twilight 6:33 AM CDT 7:59 PM CDT
Astronomical Twilight 6:04 AM CDT 8:27 PM CDT
Moon 9:03 AM CDT (10/6) 8:15 PM CDT (10/6)
Length of Visible Light 12h 29m
Length of Day
11h 40m
Waxing Crescent, 3% of the Moon is Illuminated
Oct 6
Waxing Crescent
Oct 11
First Quarter
Oct 18
Full
Oct 26
Last Quarter
Nov 3
New

Hourly Weather History & Observations

Time (CDT) Temp. Dew Point Humidity Pressure Visibility Wind Dir Wind Speed Gust Speed Precip Events Conditions
12:15 AM 54.5 °F 50.9 °F 88% 30.09 in 10.0 mi NNW 9.2 mph - N/A   Mostly Cloudy
12:35 AM 54.7 °F 51.1 °F 88% 30.11 in 10.0 mi WNW 6.9 mph - N/A   Mostly Cloudy
12:55 AM 54.9 °F 51.1 °F 87% 30.10 in 10.0 mi NNW 6.9 mph - N/A Rain Light Rain
1:15 AM 54.7 °F 50.9 °F 87% 30.10 in 10.0 mi NW 6.9 mph - N/A   Mostly Cloudy
1:35 AM 54.9 °F 51.1 °F 87% 30.09 in 10.0 mi NW 5.8 mph - N/A   Scattered Clouds
1:55 AM 54.5 °F 50.9 °F 88% 30.09 in 10.0 mi NW 4.6 mph - N/A   Scattered Clouds
2:15 AM 53.6 °F 50.0 °F 88% 30.10 in 10.0 mi NW 4.6 mph - N/A   Clear
2:35 AM 53.2 °F 50.0 °F 89% 30.10 in 10.0 mi WNW 4.6 mph - N/A   Clear
2:55 AM 52.7 °F 49.5 °F 89% 30.09 in 10.0 mi NW 5.8 mph - N/A   Clear
3:15 AM 51.4 °F 48.4 °F 89% 30.08 in 10.0 mi NNW 4.6 mph - N/A   Clear
3:35 AM 50.9 °F 47.8 °F 89% 30.08 in 10.0 mi NNW 3.5 mph - N/A   Clear
3:55 AM 50.2 °F 47.3 °F 90% 30.07 in 10.0 mi NW 4.6 mph - N/A   Clear
4:15 AM 50.2 °F 47.3 °F 90% 30.07 in 10.0 mi NW 3.5 mph - N/A   Clear
4:35 AM 49.6 °F 46.8 °F 90% 30.07 in 10.0 mi NW 4.6 mph - N/A   Clear
4:55 AM 49.6 °F 46.9 °F 90% 30.08 in 10.0 mi Calm Calm - N/A   Clear
5:15 AM 49.3 °F 46.6 °F 90% 30.08 in 10.0 mi Calm Calm - N/A   Clear
5:35 AM 49.1 °F 46.4 °F 90% 30.08 in 10.0 mi Calm Calm - N/A   Clear
5:55 AM 49.1 °F 46.4 °F 90% 30.09 in 10.0 mi Calm Calm - N/A   Clear
6:15 AM 48.9 °F 46.4 °F 91% 30.10 in 10.0 mi Calm Calm - N/A   Clear
6:35 AM 48.7 °F 46.2 °F 91% 30.10 in 10.0 mi Calm Calm - N/A   Clear
6:55 AM 48.6 °F 46.0 °F 91% 30.10 in 10.0 mi Calm Calm - N/A   Clear
7:35 AM 48.7 °F 46.4 °F 92% 30.10 in 10.0 mi Calm Calm - N/A   Clear
7:55 AM 49.1 °F 46.6 °F 91% 30.11 in 10.0 mi Calm Calm - N/A   Clear
8:15 AM 50.0 °F 47.5 °F 91% 30.11 in 10.0 mi Calm Calm - N/A   Clear
8:35 AM 51.3 °F 48.7 °F 91% 30.12 in 10.0 mi Calm Calm - N/A   Clear
8:55 AM 53.2 °F 50.2 °F 89% 30.13 in 10.0 mi NW 4.6 mph - N/A   Clear
9:15 AM 55.9 °F 51.4 °F 85% 30.14 in 10.0 mi NW 6.9 mph - N/A   Clear
9:35 AM 59.5 °F 50.9 °F 73% 30.15 in 10.0 mi WNW 11.5 mph - N/A   Clear
9:55 AM 62.4 °F 48.9 °F 61% 30.14 in 10.0 mi NW 11.5 mph - N/A   Clear
10:15 AM 64.8 °F 48.0 °F 55% 30.14 in 10.0 mi NW 16.1 mph 21.9 mph N/A   Clear
10:35 AM 66.2 °F 45.5 °F 47% 30.15 in 10.0 mi NW 16.1 mph - N/A   Clear
10:55 AM 67.1 °F 39.4 °F 36% 30.15 in 10.0 mi NW 19.6 mph 23.0 mph N/A   Clear
11:15 AM 68.0 °F 38.7 °F 34% 30.15 in 10.0 mi NNW 13.8 mph - N/A   Clear
11:35 AM 69.6 °F 39.4 °F 33% 30.15 in 10.0 mi NNW 12.7 mph - N/A   Clear
11:55 AM 70.3 °F 36.1 °F 29% 30.14 in 10.0 mi NW 15.0 mph 20.7 mph N/A   Clear
12:15 PM 72.3 °F 32.2 °F 23% 30.13 in 10.0 mi NW 11.5 mph - N/A   Clear
12:35 PM 73.8 °F 28.9 °F 19% 30.13 in 10.0 mi NW 17.3 mph 21.9 mph N/A   Clear
1:15 PM 75.0 °F 30.4 °F 19% 30.12 in 10.0 mi NNW 17.3 mph 23.0 mph N/A   Clear
1:35 PM 74.7 °F 32.4 °F 21% 30.11 in 10.0 mi NNW 19.6 mph 24.2 mph N/A   Clear
1:55 PM 75.0 °F 33.8 °F 22% 30.10 in 10.0 mi NNW 13.8 mph 23.0 mph N/A   Clear
2:15 PM 74.8 °F 33.8 °F 22% 30.09 in 10.0 mi NNW 16.1 mph 24.2 mph N/A   Clear
2:35 PM 75.6 °F 33.8 °F 22% 30.08 in 10.0 mi NW 13.8 mph 23.0 mph N/A   Clear
2:55 PM 75.9 °F 32.5 °F 20% 30.08 in 10.0 mi NW 15.0 mph 20.7 mph N/A   Clear
3:15 PM 76.1 °F 32.5 °F 20% 30.07 in 10.0 mi NW 19.6 mph 24.2 mph N/A   Clear
3:35 PM 76.6 °F 29.8 °F 18% 30.07 in 10.0 mi NW 17.3 mph 26.5 mph N/A   Clear
3:55 PM 76.3 °F 31.6 °F 20% 30.06 in 10.0 mi NW 21.9 mph 26.5 mph N/A   Clear
4:15 PM 76.1 °F 31.3 °F 19% 30.06 in 10.0 mi WNW 19.6 mph 26.5 mph N/A   Clear
4:35 PM 76.6 °F 31.1 °F 19% 30.06 in 10.0 mi NW 19.6 mph 24.2 mph N/A   Clear
4:55 PM 76.8 °F 31.5 °F 19% 30.05 in 10.0 mi NW 17.3 mph 24.2 mph N/A   Clear
5:15 PM 76.3 °F 28.4 °F 17% 30.05 in 10.0 mi NW 18.4 mph 26.5 mph N/A   Clear
5:35 PM 75.9 °F 30.4 °F 19% 30.05 in 10.0 mi NW 15.0 mph - N/A   Clear
5:55 PM 75.4 °F 30.4 °F 19% 30.05 in 10.0 mi NW 16.1 mph 21.9 mph N/A   Clear
6:15 PM 74.5 °F 30.4 °F 20% 30.05 in 10.0 mi NW 16.1 mph 20.7 mph N/A   Clear
6:35 PM 73.4 °F 30.7 °F 21% 30.06 in 10.0 mi NW 12.7 mph - N/A   Clear
6:55 PM 71.1 °F 31.1 °F 23% 30.07 in 10.0 mi NW 9.2 mph - N/A   Clear
7:35 PM 66.0 °F 32.0 °F 28% 30.07 in 10.0 mi NW 5.8 mph - N/A   Clear
7:55 PM 64.2 °F 32.2 °F 30% 30.08 in 10.0 mi NNW 3.5 mph - N/A   Clear
8:15 PM 64.4 °F 32.2 °F 30% 30.08 in 10.0 mi NNW 3.5 mph - N/A   Clear
8:35 PM 63.7 °F 32.2 °F 31% 30.08 in 10.0 mi NNW 3.5 mph - N/A   Clear
8:55 PM 63.1 °F 32.5 °F 32% 30.09 in 10.0 mi NNW 3.5 mph - N/A   Clear
9:15 PM 62.8 °F 32.7 °F 32% 30.09 in 10.0 mi North 3.5 mph - N/A   Clear
9:35 PM 61.0 °F 33.3 °F 35% 30.10 in 10.0 mi North 3.5 mph - N/A   Clear
9:55 PM 61.0 °F 33.4 °F 36% 30.10 in 10.0 mi North 3.5 mph - N/A   Clear
10:15 PM 60.3 °F 34.2 °F 38% 30.10 in 10.0 mi NNW 3.5 mph - N/A   Clear
10:35 PM 61.7 °F 33.4 °F 35% 30.10 in 7.0 mi NNW 3.5 mph - N/A   Clear
10:55 PM 56.3 °F 34.7 °F 44% 30.11 in 7.0 mi Calm Calm - N/A   Clear
11:15 PM 53.2 °F 38.3 °F 57% 30.11 in 10.0 mi Calm Calm - N/A   Clear
11:35 PM 57.4 °F 34.9 °F 43% 30.10 in 10.0 mi Calm Calm - N/A   Clear
11:55 PM 53.6 °F 35.1 °F 50% 30.10 in 7.0 mi Calm Calm - N/A   Clear